EW0680 Weather Reports


time (UTC)temp
F
wind
direction
speed
knots
gust
knots
rain 1hr
in
rain 24hr
in
rain mn
in
humidity
%
barometer
mb
20260509013059 54 315 0.0 0.0 0.01 0.03 0.03 90 1009.6
20260509011533 54 315 0.0 0.0 0.01 0.03 0.03 89 1009.4
20260509010041 54 315 0.0 0.0 0.01 0.03 0.03 89 1009.2
20260509004549 55 315 0.0 0.0 0.02 0.02 0.02 89 1009.5
20260509003113 55 315 0.0 0.0 0.02 0.02 0.02 88 1009.2
20260509001606 55 315 0.9 1.7 0.02 0.02 0.02 88 1009.4
20260509000011 56 341 0.0 0.9 0.02 0.02 0.02 87 1009.5
20260508234510 56 340 0.9 4.3 0.00 0.00 0.00 84 1009.7
20260508233013 58 311 2.6 4.3 0.00 0.00 0.00 79 1009.6
20260508231519 59 310 0.0 0.0 0.00 0.00 0.00 73 1009.6
20260508230031 60 294 0.0 0.0 0.00 0.00 0.00 68 1009.1
20260508224510 61 294 0.0 0.0 0.00 0.00 0.00 65 1008.9
20260508223020 61 294 0.0 0.0 0.00 0.00 0.00 65 1008.8
20260508221521 61 294 0.0 0.0 0.00 0.00 0.00 66 1008.7
20260508220030 61 294 0.0 0.0 0.00 0.00 0.00 65 1008.8
20260508214536 62 294 0.0 0.0 0.00 0.00 0.00 64 1008.7
20260508213039 62 294 0.0 0.0 0.00 0.00 0.00 62 1008.8
20260508211528 62 294 0.0 0.0 0.00 0.00 0.00 62 1009.0
20260508210031 62 294 0.0 0.0 0.00 0.00 0.00 62 1009.3
20260508204529 63 295 0.0 0.0 0.00 0.00 0.00 60 1009.5
20260508203046 63 292 0.0 0.0 0.00 0.00 0.00 62 1009.7
20260508201552 63 296 0.0 0.0 0.00 0.00 0.00 61 1009.7
20260508194558 63 273 0.0 0.0 0.00 0.00 0.00 58 1010.0
20260508193108 64 225 0.0 0.0 0.00 0.00 0.00 56 1010.3
20260508191506 65 314 0.0 0.0 0.00 0.00 0.00 55 1010.3
20260508190030 65 257 0.0 0.0 0.00 0.00 0.00 60 1010.4
20260508184611 64 279 0.0 0.0 0.00 0.00 0.00 55 1010.6
20260508184502 64 296 0.0 0.0 0.00 0.00 0.00 55 1010.6
20260508183006 65 300 0.0 0.0 0.00 0.00 0.00 54 1010.7
20260508181508 64 20 0.0 0.0 0.00 0.00 0.00 58 1010.8
20260508180012 63 314 0.0 0.0 0.00 0.00 0.00 59 1011.1
20260508174530 63 350 0.0 0.0 0.00 0.00 0.00 58 1011.3
20260508173018 63 330 0.0 0.0 0.00 0.00 0.00 56 1011.7
20260508171525 65 292 0.0 0.0 0.00 0.00 0.00 57 1011.8
20260508170032 66 58 0.0 0.0 0.00 0.00 0.00 60 1012.0
20260508164526 65 313 0.0 0.0 0.00 0.00 0.00 56 1012.3
20260508163046 66 242 0.0 0.0 0.00 0.00 0.00 58 1012.5
20260508161530 64 292 0.0 0.0 0.00 0.00 0.00 59 1012.7
20260508160037 63 294 0.0 0.0 0.00 0.00 0.00 59 1012.8
20260508154548 63 296 0.0 0.0 0.00 0.00 0.00 59 1012.7
20260508153046 63 252 0.0 0.0 0.00 0.00 0.00 59 1012.8
20260508151535 61 129 0.0 0.0 0.00 0.00 0.00 63 1013.0
20260508150032 60 257 0.0 0.0 0.00 0.00 0.00 63 1013.2
20260508144536 59 312 0.0 0.0 0.00 0.00 0.00 63 1013.4
20260508143033 58 303 0.0 0.0 0.00 0.00 0.00 63 1013.5
20260508141546 58 306 0.0 0.0 0.00 0.00 0.00 66 1013.5
20260508140048 57 96 0.0 0.0 0.00 0.00 0.00 65 1013.6
20260508134550 55 265 0.0 0.0 0.00 0.00 0.00 68 1013.8
20260508133050 53 308 0.0 2.6 0.00 0.00 0.00 69 1014.0
20260508130018 52 302 0.0 0.0 0.00 0.00 0.00 73 1013.9
20260508124518 51 289 0.0 2.6 0.00 0.00 0.00 73 1013.6
20260508123022 50 292 0.0 0.0 0.00 0.00 0.00 76 1013.7
20260508121530 49 292 0.0 0.0 0.00 0.00 0.00 77 1013.7
20260508120034 49 292 0.0 0.0 0.00 0.00 0.00 76 1013.7
20260508114539 48 38 0.0 0.0 0.00 0.00 0.00 79 1013.7
20260508113051 48 129 0.0 0.0 0.00 0.00 0.00 79 1013.4
20260508111535 47 291 0.0 0.0 0.00 0.00 0.00 79 1013.3
20260508110016 47 291 0.0 0.0 0.00 0.00 0.00 79 1013.1
20260508104519 47 291 0.0 0.0 0.00 0.00 0.00 79 1013.1
20260508103026 47 291 0.0 0.0 0.00 0.00 0.00 78 1013.2
20260508101534 47 291 0.0 0.0 0.00 0.00 0.00 79 1013.0
20260508100036 47 291 0.0 2.6 0.00 0.00 0.00 78 1013.0
20260508094550 47 291 0.0 0.0 0.00 0.00 0.00 79 1013.0
20260508093054 47 291 0.0 0.0 0.00 0.00 0.00 78 1013.1
20260508091526 46 294 0.0 1.7 0.00 0.00 0.00 78 1013.1
20260508090044 46 295 0.0 0.0 0.00 0.00 0.00 79 1013.3
20260508084532 45 294 0.0 0.0 0.00 0.00 0.00 78 1013.2
20260508083036 45 294 0.9 2.6 0.00 0.00 0.00 79 1013.3
20260508081517 45 291 0.0 0.0 0.00 0.00 0.00 79 1013.1
20260508080027 45 294 0.0 0.0 0.00 0.00 0.00 80 1013.3
20260508074532 45 294 0.0 0.0 0.00 0.00 0.00 79 1013.3
20260508073021 45 294 0.0 0.0 0.00 0.00 0.00 79 1013.2
20260508071526 46 294 0.0 0.9 0.00 0.00 0.00 78 1013.4
20260508070024 46 296 0.0 0.0 0.00 0.00 0.00 78 1013.5
20260508064523 46 295 0.0 0.0 0.00 0.00 0.00 78 1013.7
20260508063031 46 296 0.0 0.0 0.00 0.00 0.00 78 1013.7
20260508061533 47 286 0.0 0.0 0.00 0.00 0.00 76 1013.7
20260508060041 47 289 0.0 0.0 0.00 0.00 0.00 76 1013.7
20260508054542 47 292 0.0 0.0 0.00 0.00 0.00 75 1013.8
20260508053021 48 287 0.0 0.0 0.00 0.00 0.00 75 1013.7
20260508051559 48 290 0.0 0.0 0.00 0.00 0.00 74 1013.7
20260508051501 48 290 0.0 0.0 0.00 0.00 0.00 74 1013.7
20260508050100 48 294 0.0 0.0 0.00 0.00 0.00 74 1013.7
20260508050002 48 292 0.0 0.0 0.00 0.00 0.00 74 1013.7
20260508044508 48 296 0.0 0.0 0.00 0.00 0.00 75 1013.8
20260508043009 48 312 0.0 0.0 0.00 0.00 0.00 75 1013.7
20260508041513 49 312 0.0 0.0 0.00 0.00 0.00 74 1013.8
20260508040015 49 312 0.0 0.0 0.00 0.00 0.00 75 1013.7
20260508034511 50 312 0.0 0.0 0.00 0.00 0.00 74 1013.8
20260508033018 50 312 0.0 0.0 0.00 0.00 0.00 73 1013.9
20260508031512 50 312 0.0 0.0 0.00 0.00 0.00 73 1013.9
20260508030017 51 312 0.0 0.0 0.00 0.00 0.00 73 1013.9
20260508024522 51 312 0.0 0.0 0.00 0.00 0.00 70 1013.9
20260508023038 51 312 0.0 0.0 0.00 0.00 0.00 66 1013.8
20260508021537 51 312 0.0 0.0 0.00 0.00 0.00 67 1013.7
20260508020039 52 312 0.0 0.0 0.00 0.00 0.00 66 1013.7
20260508014545 52 312 0.0 0.0 0.00 0.00 0.00 68 1013.5